This is the latest recevied weather packets stored in our database for station/object IR9AK-10. If no packets are shown the sender has not sent any weather packets the latest 10 day(s).
| Time | Temp. | Humidity | Pressure | Rain* | Wind** | Luminosity | Snow |
|---|---|---|---|---|---|---|---|
| 1777967510 | 20.56° C | 59% | 1062.2 hPa | - | - | - | - |
| 1777966911 | 20.56° C | 59% | 1062.2 hPa | - | - | - | - |
| 1777966312 | 20.56° C | 60% | 1062.1 hPa | - | - | - | - |
| 1777965712 | 20.56° C | 59% | 1062.2 hPa | - | - | - | - |
| 1777965113 | 21.11° C | 58% | 1062.3 hPa | - | - | - | - |
| 1777964514 | 21.67° C | 54% | 1062.2 hPa | - | - | - | - |
| 1777963915 | 21.11° C | 55% | 1062.3 hPa | - | - | - | - |
| 1777963317 | 20.56° C | 56% | 1062.3 hPa | - | - | - | - |
| 1777962718 | 20.56° C | 60% | 1062.3 hPa | - | - | - | - |
| 1777962119 | 20.56° C | 58% | 1062.3 hPa | - | - | - | - |
| 1777961520 | 20.56° C | 10% | - | - | - | - | - |
| 1777960921 | 20.56° C | 55% | 1062.4 hPa | - | - | - | - |
| 1777960321 | 20.56° C | 56% | 1062.4 hPa | - | - | - | - |
| 1777959722 | 20.56° C | 57% | 1062.3 hPa | - | - | - | - |
| 1777959123 | 20.56° C | 51% | 1062.2 hPa | - | - | - | - |
| 1777958524 | 19.44° C | 54% | 1062.2 hPa | - | - | - | - |
| 1777957925 | 19.44° C | 54% | 1062.3 hPa | - | - | - | - |
| 1777957326 | 19.44° C | 53% | 1062.1 hPa | - | - | - | - |
| 1777956726 | 18.89° C | 53% | 1062 hPa | - | - | - | - |
| 1777956127 | 18.89° C | 54% | 1062 hPa | - | - | - | - |
| 1777955529 | 18.33° C | 53% | 1061.8 hPa | - | - | - | - |
| 1777954929 | 18.33° C | 53% | 1061.7 hPa | - | - | - | - |
| 1777954330 | 18.33° C | 54% | 1061.7 hPa | - | - | - | - |
| 1777953731 | 18.33° C | 53% | 1061.6 hPa | - | - | - | - |
| 1777953132 | 18.33° C | 53% | 1061.5 hPa | - | - | - | - |
* Rain since midnight (hover to see other rain measurements)
** Current wind speed in m/s (hover to see current wind gust speed)